Simultaneous Nadir Overpasses (SNOs) Predictions

Prediction of SNOs between LANDSAT-8 and TERRA Satellite Orbit:

Table of predicted SNOs for the next 14.0 days since TLE Epoch: 10/18/2023
Index Date (LANDSAT-8) Time (LANDSAT-8) Lat,Lon (LANDSAT-8) SZA (LANDSAT-8 ) Date (TERRA) Time (TERRA) Lat,Lon (TERRA) SZA (TERRA ) Distance(km) Time Diff (sec)
1 10/22/2023 10:10:41 -81.59, -75.89 80.46 10/22/2023 10:11:51 -81.59, -75.88 80.41 0.28 70
2 10/22/2023 11:00:07 81.59, 91.98 99.59 10/22/2023 11:01:12 81.59, 91.97 99.63 0.18 65
3 10/22/2023 11:49:33 -81.58,-100.20 80.38 10/22/2023 11:50:34 -81.58,-100.22 80.34 0.33 61
4 10/22/2023 12:39:00 81.59, 67.26 99.62 10/22/2023 12:39:56 81.59, 67.22 99.64 0.78 56
5 10/22/2023 13:28:26 -81.58,-124.92 80.35 10/22/2023 13:29:18 -81.58,-124.97 80.33 0.87 52
6 10/22/2023 14:17:52 81.57, 42.95 99.70 10/22/2023 14:18:39 81.57, 42.87 99.71 1.35 47
7 10/22/2023 15:07:18 -81.56,-149.23 80.27 10/22/2023 15:08:01 -81.57,-149.32 80.26 1.45 43
8 10/22/2023 15:56:44 81.56, 18.64 99.78 10/22/2023 15:57:22 81.56, 18.53 99.78 1.94 38
9 10/22/2023 16:46:11 -81.56,-173.94 80.25 10/22/2023 16:46:45 -81.57,-174.06 80.24 2.02 34
10 10/22/2023 17:35:37 81.56, -6.07 99.80 10/22/2023 17:36:06 81.56, -6.22 99.80 2.52 29
11 10/22/2023 18:25:03 -81.55, 161.74 80.17 10/22/2023 18:25:28 -81.55, 161.59 80.17 2.59 25
12 10/22/2023 19:14:29 81.54, -30.39 99.88 10/22/2023 19:14:49 81.55, -30.57 99.87 3.11 20
13 10/22/2023 20:03:56 -81.55, 137.03 80.14 10/22/2023 20:04:12 -81.56, 136.85 80.16 3.17 16
14 10/22/2023 20:53:23 81.56, -55.50 99.85 10/22/2023 20:53:33 81.55, -55.32 99.88 3.10 10
15 10/22/2023 21:42:49 -81.55, 112.32 80.12 10/22/2023 21:42:55 -81.54, 112.49 80.09 3.02 6
16 10/22/2023 22:32:15 81.54, -79.82 99.93 10/22/2023 22:32:16 81.53, -79.67 99.95 2.51 1
17 10/22/2023 23:21:41 -81.53, 88.00 80.04 10/22/2023 23:21:38 -81.53, 88.14 80.02 2.45 3
18 10/23/2023 00:11:08 81.54,-104.53 99.96 10/23/2023 00:11:00 81.54,-104.42 99.97 1.92 8
19 10/23/2023 01:00:34 -81.53, 63.29 80.01 10/23/2023 01:00:22 -81.53, 63.40 80.00 1.87 12
20 10/23/2023 01:50:00 81.52,-128.85 100.04 10/23/2023 01:49:43 81.52,-128.77 100.04 1.33 17
21 10/23/2023 02:39:26 -81.52, 38.97 79.93 10/23/2023 02:39:05 -81.51, 39.04 79.93 1.30 21
22 10/23/2023 03:28:52 81.51,-153.16 100.12 10/23/2023 03:28:26 81.50,-153.12 100.11 0.75 26
23 10/23/2023 04:18:19 -81.52, 14.25 79.91 10/23/2023 04:17:49 -81.52, 14.30 79.92 0.73 30
24 10/23/2023 05:07:45 81.51,-177.88 100.14 10/23/2023 05:07:10 81.51,-177.87 100.12 0.17 35
25 10/23/2023 05:57:11 -81.50, -10.07 79.83 10/23/2023 05:56:32 -81.50, -10.06 79.85 0.14 39
26 10/23/2023 06:46:37 81.49, 157.80 100.22 10/23/2023 06:45:53 81.49, 157.77 100.19 0.44 44
27 10/23/2023 07:36:03 -81.48, -34.39 79.75 10/23/2023 07:35:15 -81.48, -34.41 79.78 0.45 48
28 10/23/2023 08:25:29 81.47, 133.48 100.30 10/23/2023 08:24:36 81.47, 133.42 100.26 1.04 53
29 10/23/2023 09:14:56 -81.48, -59.10 79.72 10/23/2023 09:13:59 -81.49, -59.16 79.76 1.02 57
30 10/23/2023 10:04:22 81.47, 108.76 100.33 10/23/2023 10:03:20 81.48, 108.67 100.28 1.62 62
31 10/23/2023 10:53:48 -81.47, -83.43 79.64 10/23/2023 10:52:42 -81.47, -83.52 79.69 1.59 66



Historial Predications of SNOs between LANDSAT-8 and TERRA
